User: anonymous   Login
Location: Unspecified
(0.0000°N, 0.0000°E)
Time: 09:10:32
(UTC+00:00)
Language:

METEOR M2 - Orbit

View from above orbital plane
View from above orbital plane
View from above satellite
View from above satellite

Ground track
Ground track

The orbit data is extracted from the following two-line orbital elements,

1 40069U 14037A   23089.95899518  .00000119  00000-0  74141-4 0  9992
2 40069  98.4259  99.5590 0005181 198.4508 161.6483 14.20760727452540
Epoch (UTC): 30 March 2023 23:00:57
Eccentricity: 0.0005181
inclination: 98.4259°
perigee height: 819 km
apogee height: 826 km
right ascension of ascending node: 99.5590°
argument of perigee: 198.4508°
revolutions per day: 14.20760727
mean anomaly at epoch: 161.6483°
orbit number at epoch: 45254

The dashed part of the orbit path shows where the satellite is in the earth's shadow,  

DLR